DW4691 Weather Reports


time (UTC)temp
C
wind
direction
speed
KPH
gust
KPH
rain 1hr
cm
rain 24hr
cm
rain mn
cm
humidity
%
barometer
mb
20200124023116 7 325 0.0 0.0 0.00 0.00 0.00 94 1018.9
20200124021640 7 325 0.0 0.0 0.00 0.00 0.00 93 1018.7
20200124020205 7 325 0.0 0.0 0.00 0.00 0.00 93 1018.5
20200124014614 8 325 0.0 0.0 0.00 0.00 0.00 92 1018.3
20200124013105 8 325 0.0 0.0 0.00 0.00 0.00 92 1018.3
20200124011705 8 325 0.0 0.0 0.00 0.00 0.00 91 1018.0
20200124010102 8 325 0.0 0.0 0.00 0.00 0.00 90 1017.8
20200124004545 9 325 0.0 0.0 0.00 0.00 0.00 88 1017.5
20200124003047 10 325 0.0 0.0 0.00 0.00 0.00 88 1017.2
20200124001616 10 325 0.0 0.0 0.00 0.00 0.00 87 1017.2
20200124000023 11 325 0.0 0.0 0.00 0.00 0.00 85 1017.0
20200123234526 11 324 0.0 0.0 0.00 0.00 0.00 84 1016.8
20200123233030 12 290 0.0 0.0 0.00 0.00 0.00 83 1016.5
20200123231508 12 289 0.0 0.0 0.00 0.00 0.00 81 1016.1
20200123230031 13 288 0.0 0.0 0.00 0.00 0.00 77 1016.2
20200123224506 13 13 0.0 0.0 0.00 0.00 0.00 81 1016.3
20200123223012 13 59 0.0 0.0 0.00 0.00 0.00 79 1016.2
20200123221509 13 284 0.0 0.0 0.00 0.00 0.00 77 1016.1
20200123220001 13 313 0.0 0.0 0.00 0.00 0.00 78 1015.6
20200123214501 13 295 0.0 0.0 0.00 0.00 0.00 79 1015.5
20200123213252 13 360 1.6 0.0 0.00 0.00 0.00 78 1015.2
20200123211813 14 5 0.0 0.0 0.00 0.00 0.00 78 1015.4
20200123210233 14 304 1.6 0.0 0.00 0.00 0.00 79 1015.3
20200123204713 13 27 0.0 0.0 0.00 0.00 0.00 82 1015.4
20200123203159 13 113 0.0 0.0 0.00 0.00 0.00 84 1015.3
20200123201803 13 118 0.0 0.0 0.00 0.00 0.00 84 1015.4
20200123200254 13 280 1.6 0.0 0.00 0.00 0.00 85 1015.9
20200123194643 13 5 0.0 0.0 0.00 0.00 0.00 86 1015.7
20200123193238 14 349 0.0 0.0 0.00 0.00 0.00 86 1015.6
20200123191631 14 5 1.6 0.0 0.00 0.00 0.00 87 1015.6
20200123190247 13 305 0.0 0.0 0.00 0.00 0.00 88 1015.5
20200123184816 14 14 0.0 0.0 0.00 0.00 0.00 90 1015.6
20200123183243 13 15 0.0 0.0 0.00 0.00 0.00 90 1015.9
20200123181653 13 355 0.0 0.0 0.00 0.00 0.00 90 1016.1
20200123180204 13 12 0.0 0.0 0.00 0.00 0.00 90 1016.1
20200123174635 14 331 0.0 0.0 0.00 0.00 0.00 91 1016.2
20200123173249 13 274 0.0 0.0 0.00 0.00 0.00 91 1016.0
20200123171847 13 90 0.0 0.0 0.00 0.00 0.00 92 1016.0
20200123170059 13 333 0.0 0.0 0.00 0.00 0.00 93 1016.0
20200123164725 13 261 0.0 0.0 0.00 0.00 0.00 95 1015.7
20200123163154 13 261 0.0 0.0 0.00 0.00 0.00 96 1015.6
20200123161707 13 253 0.0 0.0 0.00 0.00 0.00 96 1015.7
20200123160149 13 235 0.0 0.0 0.00 0.00 0.00 96 1015.5
20200123154556 13 236 0.0 0.0 0.00 0.00 0.00 96 1015.4
20200123153129 13 236 0.0 0.0 0.00 0.00 0.00 96 1015.2
20200123151613 13 236 0.0 0.0 0.00 0.00 0.00 97 1014.9
20200123150150 13 229 0.0 0.0 0.00 0.00 0.00 97 1014.7
20200123144601 13 227 0.0 0.0 0.00 0.00 0.00 97 1014.7
20200123143120 12 156 0.0 0.0 0.00 0.00 0.00 97 1014.4
20200123141600 12 156 0.0 0.0 0.00 0.00 0.00 97 1014.3
20200123140119 12 156 0.0 0.0 0.00 0.00 0.00 97 1014.2
20200123134642 12 156 0.0 0.0 0.00 0.00 0.00 97 1014.0
20200123133113 12 156 0.0 0.0 0.00 0.00 0.00 96 1014.0
20200123131549 12 156 0.0 0.0 0.00 0.00 0.00 96 1013.7
20200123130029 13 156 0.0 0.0 0.00 0.00 0.00 97 1013.4
20200123124648 13 156 0.0 0.0 0.00 0.00 0.00 97 1013.3
20200123123053 12 156 0.0 0.0 0.00 0.00 0.00 97 1013.3
20200123121545 12 156 0.0 0.0 0.00 0.00 0.00 97 1012.9
20200123120054 12 156 0.0 0.0 0.00 0.00 0.00 96 1012.6
20200123114618 11 156 0.0 0.0 0.00 0.00 0.00 96 1012.5
20200123113058 12 156 0.0 0.0 0.00 0.00 0.00 96 1012.5
20200123111626 12 156 0.0 0.0 0.00 0.00 0.00 96 1012.4
20200123110050 12 156 0.0 0.0 0.00 0.00 0.00 96 1012.4
20200123104514 13 156 0.0 0.0 0.00 0.00 0.00 96 1012.4
20200123103023 13 156 0.0 0.0 0.00 0.00 0.00 96 1012.4
20200123101526 13 156 0.0 0.0 0.00 0.00 0.00 96 1012.4
20200123100020 13 156 0.0 0.0 0.00 0.00 0.00 96 1012.5
20200123094517 14 156 0.0 0.0 0.00 0.00 0.00 96 1012.5
20200123093040 14 156 0.0 0.0 0.00 0.00 0.00 96 1012.6
20200123090015 14 156 0.0 0.0 0.00 0.00 0.00 96 1012.4
20200123084508 14 156 0.0 0.0 0.00 0.00 0.00 96 1012.5
20200123083006 14 156 0.0 0.0 0.00 0.00 0.00 96 1012.5
20200123081504 14 156 0.0 0.0 0.00 0.00 0.00 96 1012.2
20200123080015 14 156 0.0 0.0 0.00 0.00 0.00 96 1012.2
20200123074505 14 156 0.0 0.0 0.00 0.00 0.00 96 1011.9
20200123073240 13 156 0.0 0.0 0.00 0.00 0.00 96 1012.1
20200123071718 13 156 0.0 0.0 0.00 0.00 0.00 96 1012.6
20200123070242 13 156 0.0 0.0 0.00 0.00 0.00 96 1012.7
20200123064725 13 156 0.0 0.0 0.00 0.00 0.00 96 1012.8
20200123063218 13 156 0.0 0.0 0.00 0.00 0.00 96 1013.2
20200123061654 13 156 0.0 0.0 0.00 0.00 0.00 96 1013.3
20200123060258 13 156 0.0 0.0 0.00 0.00 0.00 96 1013.5
20200123054706 13 156 0.0 0.0 0.00 0.00 1.80 96 1013.7
20200123053348 13 156 0.0 0.0 0.00 0.00 1.80 96 1013.8
20200123051716 13 156 0.0 0.0 0.00 0.00 1.75 96 1014.1
20200123050241 13 156 0.0 0.0 0.00 0.00 1.65 96 1014.0
20200123044748 13 156 0.0 0.0 0.00 0.00 1.63 96 1014.0
20200123043148 13 169 0.0 0.0 0.00 0.00 1.55 96 1014.2
20200123041643 13 120 0.0 0.0 0.00 0.00 1.32 96 1013.9
20200123040142 13 150 0.0 0.0 0.00 0.00 1.30 96 1014.0
20200123034711 13 144 0.0 0.0 0.00 0.00 1.30 96 1014.3
20200123033110 13 144 0.0 0.0 0.00 0.00 1.30 96 1014.4
20200123031620 13 138 0.0 0.0 0.00 0.00 1.24 96 1014.4
20200123030129 13 127 0.0 0.0 0.00 0.00 1.24 95 1014.7
20200123024703 13 127 0.0 0.0 0.00 0.00 1.24 95 1014.7